Livingston, MT

11:31 AM MST on November 21, 2017 (GMT -0700)
Mission

Weather History for KLVM - March, 2014

Change the Weather History Date:

Sunday, March 23, 2014

  Actual Average Record
Temperature  
Mean Temperature 31 °F 37 °F  
Max Temperature 41 °F 49 °F 71 °F (2004)
Min Temperature 20 °F 25 °F -14 °F (1965)
Degree Days  
Heating Degree Days 34 28  
Month to date heating degree days 712 696  
Since 1 July heating degree days 5955 6044  
Cooling Degree Days 0 0  
Month to date cooling degree days 0 0  
Year to date cooling degree days 0 0  
Moisture  
Dew Point 20 °F    
Average Humidity 61    
Maximum Humidity 77    
Minimum Humidity 44    
Precipitation  
Precipitation T in 0.03 in 0.53 in (1959)
Month to date precipitation 1.45 0.55  
Year to date precipitation 2.55 1.54  
Sea Level Pressure  
Sea Level Pressure 30.16 in    
Wind  
Wind Speed 10 mph (NNW)    
Max Wind Speed 28 mph    
Max Gust Speed 35 mph    
Visibility 8 miles    
Events Snow    
T = Trace of Precipitation, MM = Missing Value Source: NWS Daily Summary

Daily Weather History Graph

Daily Weather History Graph

Search for Another Location

Airport or City:

Trip Planner

Search our weather history database for the weather conditions in past years. The results will help you decide how hot, cold, wet, or windy it might be!

Date:

Astronomy

Mar. 23, 2014 Rise Set
Actual Time 7:18 AM MDT 7:38 PM MDT
Civil Twilight 6:49 AM MDT 8:08 PM MDT
Nautical Twilight 6:14 AM MDT 8:43 PM MDT
Astronomical Twilight 5:38 AM MDT 9:19 PM MDT
Moon 2:13 AM MDT (3/23) 11:49 AM MDT (3/23)
Length of Visible Light 13h 18m
Length of Day
12h 19m
Waning Gibbous, 54% of the Moon is Illuminated
Mar 23
Waning Gibbous
Mar 23
Last Quarter
Mar 30
New
Apr 7
First Quarter
Apr 15
Full

Hourly Weather History & Observations

Time (MDT) Temp. Windchill Dew Point Humidity Pressure Visibility Wind Dir Wind Speed Gust Speed Precip Events Conditions
12:53 AM 19.9 °F 8.6 °F 12.0 °F 71% 30.28 in 10.0 mi East 10.4 mph - N/A   Overcast
1:53 AM 19.9 °F 12.1 °F 12.0 °F 71% 30.25 in 10.0 mi ESE 5.8 mph - N/A   Overcast
2:53 AM 19.9 °F - 12.9 °F 74% 30.22 in 10.0 mi Calm Calm - N/A   Overcast
3:53 AM 19.9 °F - 12.9 °F 74% 30.19 in 10.0 mi Calm Calm - N/A   Overcast
4:53 AM 19.9 °F - 12.9 °F 74% 30.16 in 10.0 mi Calm Calm - N/A   Overcast
5:53 AM 19.9 °F 11.1 °F 12.9 °F 74% 30.14 in 10.0 mi West 6.9 mph - N/A   Overcast
6:53 AM 21.0 °F 11.4 °F 14.0 °F 74% 30.14 in 10.0 mi West 8.1 mph - N/A   Overcast
7:53 AM 21.9 °F 14.5 °F 15.1 °F 75% 30.15 in 10.0 mi West 5.8 mph - N/A   Overcast
8:53 AM 25.0 °F 17.1 °F 17.1 °F 72% 30.13 in 10.0 mi NNW 6.9 mph - N/A   Overcast
9:53 AM 25.0 °F 16.3 °F 17.1 °F 72% 30.16 in 10.0 mi NE 8.1 mph - N/A   Overcast
10:53 AM 34.0 °F 22.7 °F 18.0 °F 52% 30.17 in 10.0 mi NNW 19.6 mph - N/A   Overcast
11:53 AM 36.0 °F 26.3 °F 19.9 °F 52% 30.17 in 10.0 mi NNW 16.1 mph 21.9 mph N/A   Overcast
12:53 PM 39.0 °F 28.0 °F 21.9 °F 50% 30.17 in 10.0 mi WSW 25.3 mph 34.5 mph N/A   Overcast
1:25 PM 39.0 °F 29.9 °F 18.0 °F 43% 30.08 in 10.0 mi NW 17.3 mph - N/A   Overcast
1:53 PM 39.9 °F 30.5 °F 19.0 °F 43% 30.19 in 10.0 mi WNW 19.6 mph 28.8 mph N/A   Overcast
2:07 PM 34.0 °F 23.0 °F 23.0 °F 64% 30.09 in 2.5 mi NW 18.4 mph 24.2 mph 0.00 in Snow Light Snow
2:17 PM 33.1 °F 22.2 °F 25.0 °F 72% 30.09 in 1.8 mi WNW 17.3 mph - 0.00 in Snow Light Snow
2:22 PM 32.0 °F 21.6 °F 26.1 °F 79% 30.09 in 0.8 mi WNW 15.0 mph - 0.00 in Snow Light Snow
2:35 PM 34.0 °F 28.0 °F 30.0 °F 85% 30.08 in 1.2 mi WNW 6.9 mph - 0.00 in Snow Light Snow
2:38 PM 35.1 °F 28.6 °F 30.0 °F 82% 30.08 in 3.0 mi WNW 8.1 mph - 0.00 in Snow Light Snow
2:49 PM 35.6 °F 29.9 °F 28.4 °F 75% 30.08 in 10.0 mi NW 6.9 mph - 0.00 in   Overcast
2:53 PM 37.0 °F 28.9 °F 27.0 °F 67% 30.19 in 10.0 mi NW 12.7 mph - 0.00 in   Overcast
3:05 PM 35.1 °F 24.5 °F 26.1 °F 70% 30.09 in 2.5 mi North 18.4 mph - 0.00 in Snow Light Snow
3:18 PM 35.1 °F 26.4 °F 27.0 °F 72% 30.09 in 3.0 mi North 12.7 mph - 0.00 in Snow Light Snow
3:38 PM 37.0 °F 29.8 °F 25.0 °F 62% 30.08 in 10.0 mi NNW 10.4 mph - 0.00 in   Mostly Cloudy
3:53 PM 39.0 °F 32.3 °F 23.0 °F 53% 30.18 in 10.0 mi NNW 10.4 mph - 0.00 in   Mostly Cloudy
4:53 PM 39.0 °F 32.8 °F 19.9 °F 46% 30.18 in 10.0 mi NNW 9.2 mph - N/A   Mostly Cloudy
5:53 PM 37.0 °F 33.3 °F 19.0 °F 48% 30.19 in 10.0 mi WNW 4.6 mph - N/A   Clear
6:53 PM 36.0 °F - 17.1 °F 46% 30.20 in 10.0 mi Calm Calm - N/A   Clear
7:53 PM 32.0 °F 22.1 °F 21.0 °F 64% 30.23 in 10.0 mi East 13.8 mph - N/A   Clear
8:53 PM 30.0 °F 19.1 °F 19.9 °F 66% 30.24 in 10.0 mi East 15.0 mph - N/A   Mostly Cloudy
9:53 PM 28.0 °F 17.5 °F 19.0 °F 69% 30.27 in 10.0 mi East 12.7 mph - N/A   Overcast
10:53 PM 27.0 °F 17.3 °F 19.0 °F 72% 30.25 in 10.0 mi East 10.4 mph - N/A   Mostly Cloudy
11:29 PM 28.0 °F 18.1 °F 21.0 °F 75% 30.16 in 10.0 mi East 11.5 mph - N/A   Overcast
11:53 PM 28.0 °F 18.6 °F 21.9 °F 78% 30.27 in 10.0 mi East 10.4 mph - N/A   Overcast